Location: Caltech
(34.1382°N, 118.1253°W)
Time: 03:06:27
(UTC-07:00)

Tiros 1 despin weight - All Passes

Search period start: 21 September 2014 00:00
Search period end: 01 October 2014 00:00
Orbit: 601 x 652 km, 48.2° (Epoch: 20 September)

Date Brightness Start Highest point End Pass type
(mag) Time Alt. Az. Time Alt. Az. Time Alt. Az.
21 Sep - 00:06:56 10° NNW 00:09:13 14° N 00:11:31 10° NNE night (unlit)
21 Sep - 01:49:03 10° NNW 01:52:23 19° NNE 01:55:44 10° ENE night (unlit)
21 Sep - 03:30:11 10° NW 03:34:47 67° NE 03:39:25 10° ESE visible
21 Sep - 05:12:55 10° W 05:16:11 19° SW 05:19:28 10° S visible
21 Sep - 19:18:36 10° S 19:22:04 23° SE 19:25:32 10° E visible
21 Sep - 20:59:10 10° WSW 21:03:31 54° NNW 21:07:55 10° NE visible
21 Sep - 22:43:02 10° WNW 22:46:02 17° NNW 22:49:03 10° NNE visible
22 Sep - 00:26:50 10° NNW 00:29:14 14° N 00:31:39 10° NE night (unlit)
22 Sep - 02:08:09 10° NW 02:12:09 29° NNE 02:16:11 10° E night (unlit)
22 Sep - 03:49:35 10° WNW 03:54:07 58° SW 03:58:42 10° SE visible
22 Sep - 19:36:55 10° SSW 19:41:12 51° SE 19:45:32 10° ENE visible
22 Sep - 21:19:10 10° W 21:23:06 30° NNW 21:27:04 10° NE visible
22 Sep - 23:03:35 10° NW 23:05:59 14° N 23:08:23 10° NNE night (unlit)
23 Sep - 00:46:11 10° NNW 00:49:11 17° NNE 00:52:12 10° NE night (unlit)
23 Sep - 02:27:17 10° NW 02:31:44 50° NNE 02:36:15 10° ESE night (unlit)
23 Sep - 04:09:27 10° WNW 04:13:18 26° SW 04:17:11 10° S night (unlit)
23 Sep - 18:16:31 10° SSE 18:19:13 16° SE 18:21:55 10° E daylight
23 Sep - 19:56:05 10° WSW 20:00:30 73° NW 20:04:59 10° NE visible
23 Sep - 21:39:34 10° WNW 21:42:50 20° NNW 21:46:08 10° NNE visible
23 Sep - 23:23:45 10° NNW 23:25:59 13° N 23:28:13 10° NNE night (unlit)
24 Sep - 01:05:18 10° NNW 01:09:00 24° NNE 01:12:45 10° ENE night (unlit)
24 Sep - 02:46:34 10° NW 02:51:09 81° SW 02:55:47 10° SE night (unlit)
24 Sep - 04:30:52 10° WSW 04:32:20 11° SW 04:33:48 10° SSW night (unlit)
24 Sep - 18:34:14 10° SSW 18:38:17 36° SE 18:42:22 10° ENE daylight
24 Sep - 20:15:52 10° W 20:20:00 37° NNW 20:24:10 10° NE visible
24 Sep - 22:00:09 10° NW 22:02:44 15° N 22:05:19 10° NNE visible
24 Sep - 23:43:16 10° NNW 23:45:57 15° N 23:48:38 10° NE night (unlit)
25 Sep - 01:24:23 10° NW 01:28:39 39° NNE 01:32:59 10° E night (unlit)
25 Sep - 03:06:10 10° WNW 03:10:23 36° SW 03:14:38 10° SSE night (unlit)
25 Sep - 17:15:16 10° SE 17:16:22 11° SE 17:17:28 10° ESE daylight
25 Sep - 18:53:05 10° SW 18:57:31 83° SE 19:01:58 10° NE daylight
25 Sep - 20:36:06 10° WNW 20:39:39 23° NNW 20:43:14 10° NNE visible
25 Sep - 22:20:31 10° NNW 22:22:42 13° N 22:24:53 10° NNE visible
26 Sep - 00:02:26 10° NNW 00:05:49 20° NNE 00:09:14 10° ENE night (unlit)
26 Sep - 01:43:34 10° NW 01:48:08 76° NE 01:52:44 10° ESE night (unlit)
26 Sep - 03:26:36 10° W 03:29:28 16° SW 03:32:20 10° SSW night (unlit)
26 Sep - 17:31:43 10° S 17:35:23 26° SE 17:39:04 10° ENE daylight
26 Sep - 19:12:37 10° WSW 19:16:55 48° NNW 19:21:14 10° NE visible
26 Sep - 20:56:38 10° NW 20:59:29 16° NNW 21:02:20 10° NNE visible
26 Sep - 22:40:17 10° NNW 22:42:41 14° N 22:45:05 10° NE visible
27 Sep - 00:21:30 10° NW 00:25:32 31° NNE 00:29:36 10° E night (unlit)
27 Sep - 02:03:00 10° WNW 02:07:25 51° SW 02:11:53 10° SSE night (unlit)
27 Sep - 17:50:10 10° SW 17:54:32 59° SE 17:58:54 10° ENE daylight
27 Sep - 19:32:40 10° W 19:36:29 27° NNW 19:40:19 10° NE visible
27 Sep - 21:17:09 10° NW 21:19:24 14° N 21:21:40 10° NNE visible
27 Sep - 22:59:32 10° NNW 23:02:35 18° NNE 23:05:39 10° ENE night (unlit)
28 Sep - 00:40:36 10° NW 00:45:04 56° NE 00:49:34 10° ESE night (unlit)
28 Sep - 02:22:58 10° W 02:26:33 23° SW 02:30:09 10° S night (unlit)
28 Sep - 16:29:25 10° S 16:32:29 18° SE 16:35:32 10° E daylight
28 Sep - 18:09:26 10° WSW 18:13:50 64° NW 18:18:16 10° NE daylight
28 Sep - 19:53:06 10° WNW 19:56:14 18° NNW 19:59:22 10° NNE visible
28 Sep - 21:37:11 10° NNW 21:39:23 13° N 21:41:35 10° NNE visible
28 Sep - 23:18:36 10° NNW 23:22:21 25° NNE 23:26:09 10° E night (unlit)
29 Sep - 00:59:54 10° WNW 01:04:25 71° SW 01:08:59 10° SE night (unlit)
29 Sep - 16:47:22 10° SSW 16:51:33 41° SE 16:55:44 10° ENE daylight
29 Sep - 18:29:17 10° W 18:33:20 34° NNW 18:37:23 10° NE daylight
29 Sep - 20:13:40 10° NW 20:16:06 14° N 20:18:33 10° NNE visible
29 Sep - 21:56:36 10° NNW 21:59:19 16° NNE 22:02:03 10° NE visible
29 Sep - 23:37:40 10° NW 23:41:57 42° NNE 23:46:17 10° ESE night (unlit)
30 Sep - 01:19:35 10° WNW 01:23:36 31° SW 01:27:39 10° SSE night (unlit)
30 Sep - 15:27:36 10° SSE 15:29:34 13° SE 15:31:33 10° ESE daylight
30 Sep - 17:06:20 10° SW 17:10:47 87° NW 17:15:14 10° NE daylight
30 Sep - 18:49:34 10° WNW 18:52:59 21° NNW 18:56:25 10° NNE daylight
30 Sep - 20:33:57 10° NNW 20:36:04 13° N 20:38:10 10° NNE visible
30 Sep - 22:15:41 10° NNW 22:19:08 21° NNE 22:22:36 10° ENE visible
30 Sep - 23:56:51 10° NW 00:00:00 45° NW 00:00:00 45° NW night (unlit)
